Location: Newark
(48.9886°N, 1.2358°E)
Time: 00:19:08
(UTC+00:00)

Transit 4A - Pass Details

Date: 22 November 2019
Orbit: 870 x 975 km, 66.8° (Epoch: 05 December)

Event Time Altitude Azimuth Distance (km) Brightness Sun altitude
Exits shadow 05:46:30 12° 323° (NW) 2,407 9.6 -14.1°
Maximum altitude 05:52:00 80° 238° (WSW) 897 7.7 -13.3°
Drops below altitude 10° 05:57:48 10° 152° (SSE) 2,513 10.8 -12.4°
Sets 06:00:15 0° 151° (SSE) 3,444 11.6 -12.0°
